This is the latest recevied weather packets stored in our database for station/object WA1NHP. If no packets are shown the sender has not sent any weather packets the latest 10 day(s).
| Time | Temp. | Humidity | Pressure | Rain* | Wind** | Luminosity | Snow |
|---|---|---|---|---|---|---|---|
| 1788121444 | 20.56° C | 79% | 1023.9 hPa | 0 mm | - | 39 W/m² | - |
| 1788120844 | 20.56° C | 79% | 1023.9 hPa | 0 mm | - | 39 W/m² | - |
| 1788120244 | 21.11° C | 76% | 1023.9 hPa | 0 mm | - | 42 W/m² | - |
| 1788119644 | 21.11° C | 78% | 1023.9 hPa | 0 mm | - | 63 W/m² | - |
| 1788119044 | 21.67° C | 79% | 1023.9 hPa | 0 mm | - | 111 W/m² | - |
| 1788118444 | 21.67° C | 80% | 1023.9 hPa | 0 mm | - | 163 W/m² | - |
| 1788117843 | 21.67° C | 77% | 1023.9 hPa | 0 mm | - | 118 W/m² | - |
| 1788117244 | 21.67° C | 76% | 1023.9 hPa | 0 mm | - | 107 W/m² | - |
| 1788116644 | 22.22° C | 74% | 1023.9 hPa | 0 mm | - | 91 W/m² | - |
| 1788116043 | 22.78° C | 75% | 1023.9 hPa | 0 mm | - | 178 W/m² | - |
| 1788115444 | 22.78° C | 75% | 1023.9 hPa | 0 mm | - | 227 W/m² | - |
| 1788114844 | 22.78° C | 73% | 1023.9 hPa | 0 mm | - | 174 W/m² | - |
| 1788114244 | 23.33° C | 72% | 1023.9 hPa | 0 mm | - | 220 W/m² | - |
| 1788113643 | 23.33° C | 72% | 1023.9 hPa | 0 mm | - | 315 W/m² | - |
| 1788113044 | 23.89° C | 65% | 1023.9 hPa | 0 mm | - | 294 W/m² | - |
| 1788112443 | 24.44° C | 68% | 1023.9 hPa | 0 mm | - | 548 W/m² | - |
| 1788111843 | 23.33° C | 72% | 1023.9 hPa | 0 mm | - | 404 W/m² | - |
| 1788111244 | 23.33° C | 69% | 1023.9 hPa | 0 mm | - | 336 W/m² | - |
| 1788110644 | 22.78° C | 70% | 1023.9 hPa | 0 mm | - | 325 W/m² | - |
| 1788110044 | 23.33° C | 68% | 1023.9 hPa | 0 mm | - | 302 W/m² | - |
| 1788109444 | 23.89° C | 65% | 1023.9 hPa | 0 mm | - | 248 W/m² | - |
| 1788108844 | 24.44° C | 66% | 1023.9 hPa | 0 mm | - | 450 W/m² | - |
| 1788108244 | 24.44° C | 63% | 1023.9 hPa | 0 mm | - | 397 W/m² | - |
| 1788107644 | 25° C | 63% | 1023.9 hPa | 0 mm | - | 378 W/m² | - |
| 1788107044 | 24.44° C | 66% | 1023.9 hPa | 0 mm | - | 928 W/m² | - |
* Rain latest hour (hover to see other rain measurements)
** Current wind speed in m/s (hover to see current wind gust speed)